Retour au catalogue

FENGYUN 1C DEB

ActifSSO
NORAD 31022·DEBRIS·🇨🇳 China

Lancé May 10, 1999 depuis Taiyuan Satellite Launch Center

Loading…

Prochains Passages (prochaines 24 heures)

TLE

FraisSource: Space-Track

Époque: Sep 14, 2026, 12:27 UTC

1 31022U 99025BDQ 26257.51912204  .00000337  00000-0  29175-3 0  9999
2 31022  99.4858 152.3447 0110398 103.2958 258.0539 13.90715758658411

Suivez FENGYUN 1C DEB en temps réel avec AllMySat

Download on the App Store